Flight Track Log - Related Links

Times and Time Zones

All times are in EDT time to prevent confusion due to time zone crossing. See the AAL2345 flight status page for this flight to view local times or setup timezone preferences in your user account.

Time Position Orientation Groundspeed Altitude Reporting Facility
EDT Latitude Longitude Course Direction KTS MPH feet Rate Location/Type
06:50PM 41.9667 -87.8500 207° Southwest 178 205 2,300  Level Chicago TRACON
06:51PM 41.9167 -87.8500 180° South 235 270 3,900 1,886 Climbing Chicago TRACON
06:52PM 41.7287 -88.2058 201° Southwest  Level Estimated
06:52PM 41.8494 -87.9225 219° Southwest 265 305 6,700  Level Chicago Center
06:53PM 41.6442 -88.3049 197° South  Level Estimated
06:53PM 41.8003 -88.0014 230° Southwest 277 319 9,400  Level Chicago Center
06:54PM 41.5458 -88.2325 151° Southeast  Level FlightAware Approximate
06:54PM 41.7289 -88.0856 221° Southwest 293 337 11,600  Level Chicago Center
06:55PM 41.4619 -88.3324 207° Southwest  Level Estimated
06:55PM 41.6444 -88.1050 190° South 309 356 13,600  Level Chicago Center
06:56PM 41.5583 -88.1331 194° South 322 371 14,800 1,210 Climbing Chicago Center
06:57PM 41.4597 -88.1642 193° South 375 432 16,100 1,597 Climbing Chicago Center
06:58PM 41.3369 -88.2094 195° South 392 451 18,100 1,935 Climbing Chicago Center
06:59PM 41.2325 -88.2617 201° Southwest 404 465 20,100 1,597 Climbing Chicago Center
07:01PM 41.1244 -88.3075 198° South 411 473 21,400 1,403 Climbing Chicago Center
07:02PM 41.0158 -88.3631 201° Southwest 419 482 23,000 1,694 Climbing Chicago Center
07:03PM 40.8811 -88.4217 198° South 427 491 24,900 1,597 Climbing Chicago Center
07:04PM 40.7661 -88.4728 199° South 436 502 26,300 1,306 Climbing Chicago Center
07:05PM 40.6486 -88.5208 197° South 444 511 27,600 1,296 Climbing Chicago Center
07:06PM 40.5344 -88.5786 201° Southwest 443 510 29,000 1,152 Climbing Chicago Center
07:07PM 40.4025 -88.6275 196° South 449 517 30,000 484 Climbing Chicago Center
07:08PM 40.2881 -88.6992 206° Southwest 457 526 30,000  Level Chicago Center
07:09PM 40.1919 -88.8008 219° Southwest 446 513 30,000  Level Chicago Center
07:10PM 40.0933 -88.9003 218° Southwest 447 514 30,000  Level Chicago Center
07:11PM 39.9947 -89.0011 218° Southwest 448 516 30,000 -48 Level Chicago Center
07:12PM 39.8758 -89.1222 218° Southwest 451 519 29,900  Descending Chicago Center
07:13PM 39.7956 -89.2025 218° Southwest 450 518 30,000 52 Climbing Kansas City Center
07:14PM 39.6897 -89.3111 218° Southwest 456 525 30,000 48 Level Kansas City Center
07:15PM 39.5897 -89.4092 217° Southwest 454 522 30,100 48 Climbing Kansas City Center
07:16PM 39.4900 -89.5122 219° Southwest 456 525 30,100 -48 Level Kansas City Center
07:17PM 39.3914 -89.6119 218° Southwest 453 521 30,000 -97 Descending Kansas City Center
07:18PM 39.2728 -89.7300 218° Southwest 450 518 29,900 -48 Descending Kansas City Center
07:19PM 39.1714 -89.8325 218° Southwest 448 516 29,900  Level Kansas City Center
07:20PM 39.0639 -89.9397 218° Southwest 454 522 29,900 48 Level Kansas City Center
07:21PM 38.9767 -90.0314 219° Southwest 455 524 30,000 97 Climbing Kansas City Center
07:22PM 38.8833 -90.1653 228° Southwest 441 507 30,100 48 Climbing Kansas City Center
07:23PM 38.7972 -90.2814 226° Southwest 444 511 30,100 -48 Level Kansas City Center
07:24PM 38.7133 -90.3964 227° Southwest 444 511 30,000 -97 Descending Kansas City Center
07:25PM 38.6289 -90.5100 226° Southwest 450 518 29,900  Descending Kansas City Center
07:26PM 38.5417 -90.6256 226° Southwest 445 512 30,000 48 Climbing Kansas City Center
07:27PM 38.4433 -90.7583 227° Southwest 456 525 30,000  Level Kansas City Center
07:28PM 38.3575 -90.8731 226° Southwest 451 519 30,000 48 Level Kansas City Center
07:29PM 38.2714 -90.9864 226° Southwest 448 516 30,100 48 Climbing Kansas City Center
07:30PM 38.1869 -91.0994 226° Southwest 445 512 30,100 -48 Level Kansas City Center
07:31PM 38.0950 -91.2192 226° Southwest 441 507 30,000 -97 Descending Kansas City Center
07:32PM 38.0103 -91.3314 226° Southwest 439 505 29,900 -48 Descending Kansas City Center
07:33PM 37.9253 -91.4447 226° Southwest 441 507 29,900 97 Level Kansas City Center
07:35PM 37.8389 -91.5583 226° Southwest 444 511 30,100 97 Climbing Kansas City Center
07:36PM 37.7353 -91.6942 226° Southwest 443 510 30,100 -48 Level Kansas City Center
07:37PM 37.6486 -91.8064 226° Southwest 443 510 30,000 -97 Descending Kansas City Center
07:38PM 37.5636 -91.9189 226° Southwest 440 506 29,900  Descending Kansas City Center
07:39PM 37.4761 -92.0292 225° Southwest 440 506 30,000 48 Climbing Kansas City Center
07:40PM 37.3828 -92.1336 222° Southwest 444 511 30,000  Level Kansas City Center
07:41PM 37.2894 -92.2367 221° Southwest 443 510 30,000  Level Kansas City Center
07:42PM 37.1947 -92.3414 221° Southwest 448 516 30,000  Level Kansas City Center
07:43PM 37.1008 -92.4453 221° Southwest 449 517 30,000  Level Kansas City Center
07:44PM 37.0056 -92.5475 221° Southwest 448 516 30,000 48 Level Kansas City Center
07:45PM 36.8936 -92.6719 222° Southwest 448 516 30,100  Climbing Kansas City Center
07:46PM 36.8003 -92.7731 221° Southwest 446 513 30,000 -98 Descending Kansas City Center
07:47PM 36.7053 -92.8756 221° Southwest 448 516 29,900  Descending Kansas City Center
07:48PM 36.6114 -92.9761 221° Southwest 446 513 30,000 97 Climbing Kansas City Center
07:49PM 36.5097 -93.0856 221° Southwest 449 517 30,100  Climbing Kansas City Center
07:50PM 36.4161 -93.1878 221° Southwest 450 518 30,000 -48 Descending Kansas City Center
07:51PM 36.3219 -93.2886 221° Southwest 449 517 30,000  Level Kansas City Center
07:52PM 36.2283 -93.3889 221° Southwest 449 517 30,000  Level Kansas City Center
07:53PM 36.1344 -93.4897 221° Southwest 450 518 30,000  Level Kansas City Center
07:54PM 36.0211 -93.6100 221° Southwest 450 518 30,000  Level Kansas City Center
07:55PM 35.9272 -93.7097 221° Southwest 448 516 30,000  Level Kansas City Center
07:56PM 35.8272 -93.8161 221° Southwest 454 522 30,000  Level Memphis Center
07:57PM 35.7325 -93.9144 220° Southwest 454 522 30,000  Level Memphis Center
07:58PM 35.6358 -94.0150 220° Southwest 454 522 30,000 50 Level Memphis Center
07:59PM 35.5411 -94.1153 221° Southwest 454 522 30,100  Climbing Memphis Center
08:00PM 35.4442 -94.2128 219° Southwest 454 522 30,000  Descending Memphis Center
08:01PM 35.3494 -94.3128 221° Southwest 454 522 30,100  Climbing Memphis Center
08:02PM 35.2606 -94.4131 223° Southwest 444 511 30,000 -100 Descending Memphis Center
08:03PM 35.1656 -94.5125 221° Southwest 444 511 29,900 -52 Descending Memphis Center
08:04PM 35.0728 -94.6206 224° Southwest 452 520 29,900  Level Fort Worth Center
08:05PM 34.9811 -94.7200 222° Southwest 457 526 29,900 100 Level Fort Worth Center
08:06PM 34.8892 -94.8189 221° Southwest 452 520 30,100 50 Climbing Fort Worth Center
08:07PM 34.8056 -94.9050 220° Southwest 452 520 30,000 -300 Descending Fort Worth Center
08:08PM 34.6875 -94.9514 198° South 444 511 29,500 -900 Descending Fort Worth Center
08:09PM 34.5661 -94.9269 171° South 427 491 28,200 -1,400 Descending Fort Worth Center
08:10PM 34.4528 -94.9000 169° South 415 478 26,700 -1,750 Descending Fort Worth Center
08:11PM 34.3397 -94.8783 171° South 420 483 24,700 -1,350 Descending Fort Worth Center
08:12PM 34.2575 -94.9333 209° Southwest 380 437 24,000 -350 Descending Fort Worth Center
08:13PM 34.2053 -95.0403 239° Southwest 341 392 24,000  Level Fort Worth Center
08:14PM 34.1447 -95.1475 236° Southwest 356 410 24,000  Level Fort Worth Center
08:15PM 34.0900 -95.2492 237° Southwest 372 428 24,000  Level Fort Worth Center
08:16PM 34.0314 -95.3533 236° Southwest 379 436 24,000  Level Fort Worth Center
08:17PM 33.9706 -95.4650 237° Southwest 384 442 24,000  Level Fort Worth Center
08:18PM 33.8992 -95.5892 235° Southwest 411 473 24,000  Level Fort Worth Center
08:19PM 33.8383 -95.7081 238° Southwest 411 473 24,000  Level Fort Worth Center
08:20PM 33.7708 -95.8217 234° Southwest 416 479 24,000 -100 Level Fort Worth Center
08:21PM 33.7078 -95.9353 236° Southwest 421 484 23,800 -900 Descending Fort Worth Center
08:22PM 33.6483 -96.0386 235° Southwest 420 483 22,200 -2,100 Descending Fort Worth Center
08:23PM 33.5764 -96.1544 233° Southwest 409 471 19,600 -2,250 Descending Fort Worth Center
08:24PM 33.5106 -96.2450 229° Southwest 404 465 17,700 -2,050 Descending Fort Worth Center
08:25PM 33.4364 -96.3506 230° Southwest 399 459 15,500 -2,000 Descending Fort Worth Center
08:26PM 33.3722 -96.4333 227° Southwest 379 436 13,700 -1,600 Descending Fort Worth Center
08:27PM 33.2958 -96.5261 225° Southwest 364 419 12,300 -1,350 Descending Fort Worth Center
08:28PM 33.2275 -96.6064 225° Southwest 348 400 11,000 -650 Descending Fort Worth Center
08:29PM 33.1672 -96.6789 225° Southwest 348 400 11,000  Level Fort Worth Center
08:30PM 33.0928 -96.7661 224° Southwest 348 400 11,000  Level Fort Worth Center
08:31PM 33.0344 -96.8361 225° Southwest 348 400 11,000  Level Fort Worth Center
08:32PM 32.9742 -96.9008 222° Southwest 326 375 11,000 -550 Level Fort Worth Center
08:33PM 32.9033 -96.9061 184° South 261 300 9,900 -1,300 Descending Fort Worth Center
08:34PM 32.8303 -96.9092 182° South 261 300 8,400 -1,550 Descending Fort Worth Center
08:35PM 32.7592 -96.9094 180° South 261 300 6,800 -1,550 Descending Fort Worth Center
08:36PM 32.6967 -96.9394 202° Southwest 219 252 5,300 -1,400 Descending Fort Worth Center
08:37PM 32.7033 -97.0061 277° West 188 216 4,000 -1,300 Descending Fort Worth Center

Login

Don't have an account? Register now (free) for customized features, flight alerts, and more!